| time (UTC) | temp F | wind direction | speed knots | gust knots | rain 1hr in | rain 24hr in | rain mn in | humidity % | barometer mb |
| 20260504202505 | 61 | 316 | 4.3 | 6.1 | 0.00 | 0.00 | 0.00 | 45 | 1018.6 |
| 20260504202005 | 61 | 307 | 3.5 | 5.2 | 0.00 | 0.00 | 0.00 | 45 | 1018.6 |
| 20260504201505 | 61 | 320 | 1.7 | 2.6 | 0.00 | 0.00 | 0.00 | 44 | 1018.7 |
| 20260504201005 | 61 | 348 | 2.6 | 5.2 | 0.00 | 0.00 | 0.00 | 44 | 1018.9 |
| 20260504200504 | 61 | 342 | 3.5 | 6.1 | 0.00 | 0.00 | 0.00 | 42 | 1018.8 |
| 20260504200005 | 62 | 335 | 4.3 | 6.1 | 0.00 | 0.00 | 0.00 | 40 | 1018.5 |
| 20260504195004 | 62 | 335 | 5.2 | 6.1 | 0.00 | 0.00 | 0.00 | 42 | 1018.6 |
| 20260504193505 | 61 | 305 | 3.5 | 6.1 | 0.00 | 0.00 | 0.00 | 45 | 1018.8 |
| 20260504193005 | 61 | 298 | 2.6 | 4.3 | 0.00 | 0.00 | 0.00 | 45 | 1018.8 |
| 20260504192005 | 61 | 319 | 0.9 | 2.6 | 0.00 | 0.00 | 0.00 | 45 | 1018.9 |
| 20260504191505 | 61 | 313 | 1.7 | 2.6 | 0.00 | 0.00 | 0.00 | 46 | 1018.9 |
| 20260504191004 | 61 | 345 | 2.6 | 3.5 | 0.00 | 0.00 | 0.00 | 46 | 1018.8 |
| 20260504190504 | 61 | 344 | 2.6 | 3.5 | 0.00 | 0.00 | 0.00 | 45 | 1018.9 |
| 20260504190005 | 61 | 311 | 3.5 | 4.3 | 0.00 | 0.00 | 0.00 | 45 | 1018.7 |
| 20260504185505 | 61 | 279 | 4.3 | 5.2 | 0.00 | 0.00 | 0.00 | 45 | 1018.6 |
| 20260504185005 | 61 | 262 | 4.3 | 5.2 | 0.00 | 0.00 | 0.00 | 45 | 1018.5 |
| 20260504184505 | 62 | 241 | 2.6 | 4.3 | 0.00 | 0.00 | 0.00 | 45 | 1018.5 |
| 20260504184005 | 62 | 243 | 1.7 | 3.5 | 0.00 | 0.00 | 0.00 | 45 | 1018.5 |
| 20260504183005 | 62 | 269 | 1.7 | 3.5 | 0.00 | 0.00 | 0.00 | 44 | 1018.3 |
| 20260504182505 | 63 | 283 | 1.7 | 2.6 | 0.00 | 0.00 | 0.00 | 42 | 1018.2 |
| 20260504182005 | 63 | 343 | 1.7 | 2.6 | 0.00 | 0.00 | 0.00 | 41 | 1018.2 |
| 20260504181005 | 63 | 359 | 2.6 | 4.3 | 0.00 | 0.00 | 0.00 | 41 | 1018.0 |
| 20260504180505 | 63 | 42 | 1.7 | 3.5 | 0.00 | 0.00 | 0.00 | 41 | 1017.9 |
| 20260504180004 | 63 | 27 | 2.6 | 3.5 | 0.00 | 0.00 | 0.00 | 40 | 1018.0 |
| 20260504174008 | 64 | 43 | 1.7 | 2.6 | 0.00 | 0.00 | 0.00 | 36 | 1017.9 |
| 20260504173505 | 64 | 63 | 2.6 | 2.6 | 0.00 | 0.00 | 0.00 | 36 | 1017.6 |
| 20260504173005 | 64 | 57 | 2.6 | 3.5 | 0.00 | 0.00 | 0.00 | 36 | 1017.7 |
| 20260504172505 | 64 | 54 | 2.6 | 3.5 | 0.00 | 0.00 | 0.00 | 36 | 1017.7 |
| 20260504171005 | 65 | 79 | 3.5 | 4.3 | 0.00 | 0.00 | 0.00 | 35 | 1017.6 |
| 20260504170504 | 65 | 86 | 4.3 | 6.1 | 0.00 | 0.00 | 0.00 | 35 | 1017.4 |
| 20260504151004 | 72 | 121 | 4.3 | 9.6 | 0.00 | 0.00 | 0.00 | 28 | 1017.4 |
| 20260504150504 | 71 | 113 | 5.2 | 9.6 | 0.00 | 0.00 | 0.00 | 27 | 1017.7 |
| 20260504141004 | 72 | 291 | 6.1 | 9.6 | 0.00 | 0.00 | 0.00 | 20 | 1017.7 |
| 20260504140504 | 72 | 288 | 5.2 | 7.8 | 0.00 | 0.00 | 0.00 | 20 | 1017.6 |
| 20260504130504 | 71 | 244 | 5.2 | 7.0 | 0.00 | 0.00 | 0.00 | 24 | 1018.0 |
| 20260504110505 | 68 | 286 | 7.8 | 11.3 | 0.00 | 0.00 | 0.00 | 24 | 1019.2 |
| 20260504100505 | 67 | 319 | 8.7 | 13.9 | 0.00 | 0.04 | 0.00 | 20 | 1019.6 |
| 20260504082005 | 64 | 296 | 6.1 | 7.8 | 0.00 | 0.06 | 0.00 | 31 | 1019.8 |
| 20260504081504 | 64 | 270 | 6.1 | 7.8 | 0.00 | 0.06 | 0.00 | 33 | 1020.1 |
| 20260504081005 | 64 | 310 | 5.2 | 6.1 | 0.00 | 0.06 | 0.00 | 35 | 1019.9 |
| 20260504080505 | 64 | 335 | 6.1 | 9.6 | 0.00 | 0.06 | 0.00 | 33 | 1020.0 |
| 20260504050504 | 49 | 6 | 1.7 | 2.6 | 0.00 | 0.06 | 0.00 | 65 | 1019.8 |
| 20260504045505 | 50 | 188 | 2.6 | 3.5 | 0.00 | 0.06 | 0.00 | 67 | 1019.9 |
| 20260504045004 | 50 | 96 | 2.6 | 3.5 | 0.00 | 0.06 | 0.00 | 67 | 1019.7 |
| 20260504044504 | 49 | 108 | 1.7 | 3.5 | 0.00 | 0.06 | 0.00 | 68 | 1019.7 |
| 20260504044005 | 49 | 128 | 1.7 | 2.6 | 0.00 | 0.06 | 0.00 | 67 | 1019.6 |
| 20260504043504 | 49 | 223 | 1.7 | 2.6 | 0.00 | 0.06 | 0.00 | 66 | 1019.5 |
| 20260504043004 | 49 | 214 | 1.7 | 2.6 | 0.00 | 0.06 | 0.00 | 66 | 1019.5 |
| 20260504042505 | 49 | 188 | 0.9 | 1.7 | 0.00 | 0.06 | 0.00 | 65 | 1019.5 |
| 20260504042005 | 49 | 83 | 0.9 | 1.7 | 0.00 | 0.06 | 0.00 | 65 | 1019.5 |
| 20260504041504 | 49 | 80 | 1.7 | 1.7 | 0.00 | 0.06 | 0.00 | 65 | 1019.5 |
| 20260504041004 | 49 | 49 | 0.9 | 1.7 | 0.00 | 0.06 | 0.00 | 65 | 1019.4 |
| 20260504040005 | 48 | 359 | 1.7 | 2.6 | 0.00 | 0.06 | 0.00 | 66 | 1019.3 |
| 20260504035505 | 48 | 333 | 1.7 | 2.6 | 0.00 | 0.06 | 0.00 | 65 | 1019.3 |
| 20260504035005 | 48 | 309 | 1.7 | 2.6 | 0.00 | 0.06 | 0.00 | 65 | 1019.2 |
| 20260504034504 | 48 | 326 | 0.9 | 1.7 | 0.00 | 0.06 | 0.00 | 65 | 1019.0 |
| 20260504034005 | 48 | 342 | 1.7 | 2.6 | 0.00 | 0.06 | 0.00 | 65 | 1019.2 |
| 20260504033007 | 48 | 254 | 1.7 | 2.6 | 0.00 | 0.06 | 0.00 | 65 | 1019.0 |
| 20260504032505 | 48 | 278 | 1.7 | 2.6 | 0.00 | 0.06 | 0.00 | 65 | 1018.9 |
| 20260504031504 | 48 | 308 | 0.9 | 1.7 | 0.00 | 0.06 | 0.00 | 65 | 1019.0 |
| 20260504031005 | 48 | 270 | 0.0 | 0.9 | 0.00 | 0.06 | 0.00 | 65 | 1018.8 |
| 20260504030504 | 48 | 270 | 0.9 | 0.9 | 0.00 | 0.06 | 0.00 | 65 | 1018.9 |
| 20260504025505 | 48 | 281 | 0.9 | 2.6 | 0.00 | 0.06 | 0.00 | 65 | 1018.9 |
| 20260504025005 | 48 | 309 | 0.9 | 2.6 | 0.00 | 0.06 | 0.00 | 65 | 1019.0 |
| 20260504024504 | 48 | 351 | 0.9 | 2.6 | 0.00 | 0.06 | 0.00 | 66 | 1018.9 |
| 20260504024005 | 48 | 347 | 0.9 | 1.7 | 0.00 | 0.06 | 0.00 | 66 | 1018.9 |
| 20260504023506 | 48 | 99 | 0.9 | 1.7 | 0.00 | 0.06 | 0.00 | 66 | 1018.8 |
| 20260504023005 | 48 | 72 | 1.7 | 2.6 | 0.00 | 0.06 | 0.00 | 66 | 1018.7 |
| 20260504022504 | 48 | 67 | 1.7 | 2.6 | 0.00 | 0.06 | 0.00 | 65 | 1018.7 |
| 20260504022005 | 49 | 55 | 1.7 | 2.6 | 0.00 | 0.06 | 0.00 | 64 | 1018.7 |
| 20260504021505 | 49 | 46 | 1.7 | 2.6 | 0.00 | 0.06 | 0.00 | 63 | 1018.6 |
| 20260504021004 | 49 | 1 | 1.7 | 2.6 | 0.00 | 0.06 | 0.00 | 63 | 1018.8 |
| 20260504020505 | 49 | 250 | 1.7 | 2.6 | 0.00 | 0.06 | 0.00 | 62 | 1018.8 |
| 20260504020005 | 49 | 207 | 0.9 | 2.6 | 0.00 | 0.06 | 0.00 | 65 | 1018.6 |
| 20260504014505 | 49 | 166 | 0.9 | 0.9 | 0.00 | 0.06 | 0.00 | 65 | 1018.8 |
| 20260504013504 | 49 | 262 | 0.9 | 0.9 | 0.00 | 0.06 | 0.00 | 65 | 1018.6 |
| 20260504013005 | 49 | 310 | 0.9 | 2.6 | 0.00 | 0.06 | 0.00 | 65 | 1018.7 |
| 20260504012505 | 49 | 294 | 1.7 | 2.6 | 0.00 | 0.06 | 0.00 | 65 | 1018.7 |
| 20260504012004 | 49 | 273 | 0.9 | 2.6 | 0.00 | 0.06 | 0.00 | 66 | 1018.7 |
| 20260504011505 | 49 | 310 | 0.9 | 1.7 | 0.00 | 0.06 | 0.00 | 66 | 1018.7 |
| 20260504010005 | 48 | 142 | 1.7 | 2.6 | 0.00 | 0.06 | 0.00 | 66 | 1018.7 |
| 20260504004504 | 49 | 63 | 0.9 | 2.6 | 0.00 | 0.06 | 0.00 | 66 | 1018.7 |
| 20260504004005 | 49 | 159 | 0.9 | 1.7 | 0.00 | 0.06 | 0.00 | 66 | 1018.7 |
| 20260504003505 | 49 | 187 | 0.9 | 1.7 | 0.00 | 0.06 | 0.00 | 66 | 1018.6 |
| 20260504003005 | 49 | 106 | 0.9 | 1.7 | 0.00 | 0.06 | 0.00 | 65 | 1018.4 |
| 20260504002505 | 49 | 82 | 0.9 | 1.7 | 0.00 | 0.06 | 0.00 | 66 | 1018.3 |
| 20260504002004 | 49 | 74 | 0.9 | 0.9 | 0.00 | 0.06 | 0.00 | 66 | 1018.5 |
| 20260504001505 | 49 | 8 | 0.9 | 2.6 | 0.00 | 0.06 | 0.00 | 67 | 1018.4 |
| 20260504001005 | 49 | 33 | 0.9 | 2.6 | 0.00 | 0.06 | 0.00 | 66 | 1018.5 |
| 20260504000005 | 49 | 2 | 0.9 | 0.9 | 0.00 | 0.06 | 0.00 | 66 | 1018.7 |
| 20260503235504 | 49 | 25 | 0.9 | 0.9 | 0.00 | 0.06 | 0.00 | 66 | 1018.7 |
| 20260503235004 | 49 | 119 | 0.9 | 0.9 | 0.00 | 0.06 | 0.00 | 65 | 1018.6 |
| 20260503234505 | 49 | 224 | 0.9 | 1.7 | 0.00 | 0.06 | 0.00 | 65 | 1018.8 |
| 20260503234005 | 49 | 248 | 0.9 | 1.7 | 0.00 | 0.06 | 0.00 | 65 | 1018.8 |
| 20260503233504 | 49 | 291 | 1.7 | 1.7 | 0.00 | 0.06 | 0.00 | 65 | 1018.8 |
| 20260503233005 | 49 | 282 | 1.7 | 1.7 | 0.00 | 0.06 | 0.00 | 65 | 1018.8 |
| 20260503232505 | 49 | 253 | 1.7 | 2.6 | 0.00 | 0.06 | 0.00 | 65 | 1018.8 |
| 20260503232005 | 49 | 239 | 2.6 | 2.6 | 0.00 | 0.06 | 0.00 | 64 | 1019.0 |
| 20260503231505 | 49 | 215 | 2.6 | 4.3 | 0.00 | 0.06 | 0.00 | 64 | 1019.0 |
| 20260503231004 | 49 | 205 | 2.6 | 4.3 | 0.00 | 0.06 | 0.00 | 63 | 1019.0 |
| 20260503230510 | 50 | 222 | 1.7 | 3.5 | 0.00 | 0.06 | 0.00 | 63 | 1018.9 |
| 20260503230004 | 50 | 255 | 0.9 | 2.6 | 0.00 | 0.06 | 0.00 | 63 | 1018.9 |
| 20260503225505 | 50 | 244 | 0.9 | 2.6 | 0.00 | 0.06 | 0.00 | 63 | 1019.0 |
| 20260503225006 | 50 | 202 | 1.7 | 3.5 | 0.00 | 0.06 | 0.00 | 61 | 1019.1 |
| 20260503224504 | 51 | 218 | 1.7 | 3.5 | 0.00 | 0.06 | 0.00 | 60 | 1019.1 |
| 20260503223505 | 51 | 276 | 3.5 | 6.1 | 0.00 | 0.06 | 0.00 | 59 | 1019.1 |
| 20260503223004 | 51 | 235 | 3.5 | 6.1 | 0.00 | 0.06 | 0.00 | 60 | 1019.2 |
| 20260503222505 | 51 | 203 | 2.6 | 3.5 | 0.00 | 0.06 | 0.00 | 62 | 1019.1 |
| 20260503222005 | 51 | 321 | 2.6 | 5.2 | 0.00 | 0.06 | 0.00 | 61 | 1019.2 |
| 20260503221504 | 51 | 325 | 3.5 | 5.2 | 0.00 | 0.06 | 0.00 | 62 | 1019.1 |
| 20260503221005 | 51 | 338 | 3.5 | 5.2 | 0.00 | 0.06 | 0.00 | 63 | 1019.3 |
| 20260503220504 | 50 | 341 | 2.6 | 4.3 | 0.00 | 0.06 | 0.00 | 65 | 1019.3 |
| 20260503220009 | 50 | 242 | 1.7 | 4.3 | 0.00 | 0.06 | 0.00 | 66 | 1019.2 |
| 20260503215508 | 50 | 246 | 1.7 | 4.3 | 0.00 | 0.06 | 0.00 | 66 | 1019.2 |
| 20260503215008 | 50 | 272 | 0.9 | 1.7 | 0.00 | 0.06 | 0.00 | 67 | 1019.1 |
| 20260503214508 | 50 | 271 | 0.9 | 2.6 | 0.00 | 0.06 | 0.00 | 67 | 1019.2 |
| 20260503214007 | 49 | 263 | 1.7 | 4.3 | 0.00 | 0.06 | 0.00 | 67 | 1019.1 |
| 20260503213508 | 49 | 267 | 3.5 | 4.3 | 0.00 | 0.06 | 0.00 | 67 | 1019.0 |
| 20260503213008 | 49 | 262 | 3.5 | 4.3 | 0.00 | 0.06 | 0.00 | 67 | 1019.3 |
| 20260503212511 | 49 | 239 | 2.6 | 4.3 | 0.00 | 0.06 | 0.00 | 67 | 1019.3 |
| 20260503212008 | 49 | 245 | 3.5 | 4.3 | 0.00 | 0.06 | 0.00 | 67 | 1019.3 |
| 20260503211507 | 50 | 242 | 3.5 | 5.2 | 0.00 | 0.06 | 0.00 | 66 | 1019.3 |
| 20260503211008 | 50 | 223 | 3.5 | 5.2 | 0.00 | 0.06 | 0.00 | 66 | 1019.3 |
| 20260503210508 | 50 | 32 | 1.7 | 4.3 | 0.00 | 0.06 | 0.00 | 67 | 1019.1 |
| 20260503205508 | 50 | 271 | 1.7 | 3.5 | 0.00 | 0.06 | 0.06 | 68 | 1019.4 |
| 20260503204509 | 50 | 233 | 2.6 | 4.3 | 0.00 | 0.06 | 0.06 | 67 | 1019.4 |
| 20260503204008 | 50 | 223 | 2.6 | 5.2 | 0.00 | 0.06 | 0.06 | 67 | 1019.5 |
| 20260503203508 | 51 | 242 | 2.6 | 5.2 | 0.00 | 0.06 | 0.06 | 67 | 1019.4 |
| 20260503203008 | 51 | 298 | 1.7 | 3.5 | 0.00 | 0.06 | 0.06 | 68 | 1019.5 |